EW6571 Weather Reports


Display with metric or nautical units.
time (UTC)temp
F
wind
direction
speed
MPH
gust
MPH
rain 1hr
in
rain 24hr
in
rain mn
in
humidity
%
barometer
mb
20260831114547 39 204 2.0 4.0 0.00 0.16 0.00 81 1013.2
20260831113027 40 203 0.0 2.0 0.00 0.16 0.00 79 1012.9
20260831111524 41 203 2.0 3.0 0.00 0.16 0.00 76 1012.9
20260831110023 42 203 2.0 5.0 0.00 0.16 0.00 75 1012.7
20260831104531 41 203 1.0 3.0 0.00 0.16 0.00 77 1012.8
20260831103020 41 203 1.0 4.0 0.00 0.16 0.00 74 1012.8
20260831101516 42 203 4.0 5.0 0.00 0.16 0.00 73 1012.7
20260831100014 42 203 0.0 0.0 0.00 0.16 0.00 73 1012.5
20260831094512 42 203 0.0 3.0 0.00 0.16 0.00 75 1012.3
20260831093018 42 203 0.0 2.0 0.00 0.16 0.00 75 1012.2
20260831091509 43 203 2.0 4.0 0.00 0.16 0.00 75 1012.1
20260831090009 43 203 2.0 3.0 0.00 0.16 0.00 74 1012.2
20260831084505 43 203 0.0 4.0 0.00 0.16 0.00 73 1012.2
20260831083005 44 203 2.0 4.0 0.00 0.16 0.00 74 1012.1
20260831081505 44 203 1.0 5.0 0.00 0.16 0.00 74 1012.1
20260831080002 44 203 2.0 4.0 0.00 0.16 0.00 74 1012.2
20260831074607 44 203 1.0 4.0 0.00 0.16 0.00 73 1012.1
20260831073101 45 203 1.0 4.0 0.00 0.16 0.00 73 1012.0
20260831071608 44 203 2.0 5.0 0.00 0.16 0.00 73 1011.9
20260831070056 45 203 1.0 6.0 0.00 0.16 0.00 70 1011.7
20260831064554 46 203 2.0 5.0 0.00 0.20 0.00 70 1011.5
20260831063053 45 203 1.0 3.0 0.00 0.20 0.00 70 1011.4
20260831061550 46 203 2.0 6.0 0.00 0.20 0.00 70 1011.3
20260831060058 44 298 2.0 4.0 0.00 0.20 0.00 72 1011.3
20260831054542 46 234 3.0 7.0 0.00 0.20 0.20 68 1011.1
20260831053038 46 214 1.0 4.0 0.00 0.20 0.20 66 1011.0
20260831051533 48 214 3.0 5.0 0.00 0.20 0.20 62 1010.8
20260831050032 48 177 2.0 5.0 0.00 0.20 0.20 63 1010.5
20260831044532 48 177 4.0 6.0 0.00 0.20 0.20 64 1010.5
20260831043037 48 176 3.0 5.0 0.00 0.20 0.20 64 1010.4
20260831041527 50 175 5.0 7.0 0.00 0.20 0.20 57 1010.5
20260831040026 54 113 2.0 8.0 0.00 0.20 0.20 41 1010.3
20260831034525 52 108 4.0 7.0 0.00 0.21 0.20 47 1010.2
20260831033024 53 148 0.0 5.0 0.00 0.21 0.20 49 1010.0
20260831031530 54 148 4.0 7.0 0.00 0.21 0.20 44 1009.9
20260831030022 52 146 4.0 7.0 0.00 0.21 0.20 51 1009.8
20260831024524 51 271 2.0 9.0 0.00 0.21 0.20 60 1009.6
20260831023018 53 203 5.0 7.0 0.00 0.21 0.20 56 1009.0
20260831021517 54 206 5.0 7.0 0.00 0.21 0.20 56 1008.8
20260831020017 56 207 5.0 6.0 0.00 0.21 0.20 50 1008.6
20260831014517 59 207 4.0 6.0 0.00 0.21 0.20 46 1008.5
20260831013034 62 211 3.0 6.0 0.00 0.21 0.20 39 1008.6
20260831011519 65 225 3.0 6.0 0.00 0.21 0.20 38 1008.6
20260831010018 67 250 3.0 9.0 0.00 0.21 0.20 28 1008.6
20260831004515 68 258 3.0 11.0 0.00 0.21 0.20 27 1008.5
20260831003021 68 268 7.0 13.0 0.00 0.21 0.20 29 1008.6
20260831001521 68 239 5.0 15.0 0.00 0.21 0.20 27 1008.5
20260831000012 69 252 3.0 15.0 0.00 0.21 0.20 27 1008.4
20260830234511 69 246 8.0 14.0 0.00 0.21 0.20 28 1008.3
20260830233010 69 172 6.0 17.0 0.00 0.21 0.20 27 1008.3
20260830231626 70 290 8.0 14.0 0.00 0.21 0.20 30 1008.3
20260830230009 70 248 9.0 14.0 0.00 0.21 0.20 32 1008.2
20260830224514 69 243 9.0 15.0 0.00 0.21 0.20 32 1008.2
20260830223008 69 289 10.0 19.0 0.00 0.21 0.20 32 1008.4
20260830221515 69 267 7.0 14.0 0.00 0.21 0.20 31 1008.5
20260830220006 70 257 13.0 18.0 0.00 0.21 0.20 32 1008.6
20260830214509 69 267 6.0 14.0 0.00 0.21 0.20 34 1008.6
20260830213001 69 286 6.0 14.0 0.00 0.21 0.20 34 1008.7
20260830211501 69 250 12.0 19.0 0.00 0.21 0.20 34 1008.7
20260830210133 69 270 10.0 17.0 0.00 0.21 0.20 35 1008.9
20260830204609 68 258 5.0 19.0 0.00 0.21 0.20 35 1008.9
20260830203057 68 274 6.0 21.0 0.00 0.21 0.20 38 1009.0
20260830201557 67 258 3.0 9.0 0.00 0.21 0.20 39 1009.2
20260830200108 67 248 9.0 12.0 0.00 0.21 0.20 40 1009.3
20260830194613 66 205 5.0 15.0 0.00 0.22 0.20 42 1009.2
20260830193048 66 238 8.0 13.0 0.00 0.22 0.20 46 1009.2
20260830191544 65 285 6.0 10.0 0.00 0.22 0.20 54 1009.2
20260830190043 63 246 2.0 7.0 0.00 0.22 0.20 59 1009.3
20260830184542 64 186 3.0 11.0 0.00 0.22 0.20 61 1009.2
20260830183038 63 284 7.0 11.0 0.00 0.22 0.20 62 1009.1
20260830181538 62 268 1.0 6.0 0.00 0.22 0.20 64 1009.0
20260830180036 61 258 4.0 8.0 0.00 0.22 0.20 69 1008.9
20260830174536 61 228 2.0 5.0 0.00 0.30 0.20 71 1009.0
20260830173045 61 142 5.0 9.0 0.00 0.30 0.20 71 1009.0
20260830171529 60 115 3.0 8.0 0.00 0.30 0.20 75 1008.9
20260830170026 60 209 3.0 8.0 0.00 0.30 0.20 75 1009.0
20260830164524 59 63 3.0 6.0 0.00 0.56 0.20 81 1008.9
20260830163023 58 66 4.0 6.0 0.00 0.56 0.20 86 1009.0
20260830161519 56 91 4.0 8.0 0.00 0.56 0.20 89 1009.0
20260830160016 54 162 0.0 4.0 0.00 0.56 0.20 92 1009.2
20260830154510 53 162 1.0 3.0 0.11 0.56 0.20 90 1009.1
20260830153013 53 162 1.0 3.0 0.15 0.56 0.20 89 1008.8
20260830151506 53 161 2.0 8.0 0.15 0.56 0.20 89 1008.6
20260830150006 52 180 4.0 10.0 0.15 0.56 0.20 88 1008.5
20260830144506 52 225 5.0 13.0 0.03 0.45 0.08 88 1008.6
20260830143003 53 280 3.0 7.0 0.01 0.42 0.05 89 1008.3
20260830141506 52 165 2.0 7.0 0.01 0.42 0.05 88 1007.7
20260830140003 51 150 2.0 6.0 0.01 0.42 0.05 92 1007.6
20260830134506 51 152 2.0 3.0 0.01 0.42 0.05 92 1007.9
20260830133001 50 152 2.0 5.0 0.00 0.41 0.04 92 1008.0
20260830131627 50 147 1.0 3.0 0.00 0.41 0.04 91 1007.6
20260830130001 50 147 2.0 5.0 0.00 0.41 0.04 92 1007.5
20260830124600 50 136 1.0 3.0 0.00 0.41 0.04 92 1007.2
20260830123108 49 136 0.0 2.0 0.00 0.41 0.04 91 1007.1
20260830121558 49 136 1.0 4.0 0.00 0.41 0.04 91 1006.8
20260830120058 49 135 0.0 3.0 0.00 0.41 0.04 90 1006.7